Laichingen Airport

Jump to: basic info | weather | comments

Related pages: nearby airports | nearby navaids | notams | map

Basic information (top)

Codes: EDPJ
Location: lon 48.496944, lat 9.640278, elev 2,434 ft / 742 m msl
Status: small_airport

Weather (top)

Current conditions for Laupheim Airport 20nm (37km) SSE (rec'd 2015/04/27 08:20Z):

ETHL 270820Z 06003KT 9999 FEW020 BKN130 BKN280 14/10 Q1002 BLU BLU

Airport forecast for Laupheim Airport 20nm (37km) SSE (rec'd 2015/04/24 08:39Z):

TAF TAF ETHL 240732Z 2408/2420 22007KT 9999 NSW FEW300

Latest comments (top)

EDPJ: See also the homepage of the club 'FSV ... [read]

More... (top)

See also NOTAMs and nearby airports and navaids, or visit the Laichingen Airport page at the main OurAirports website..